Regional Weather Roundup
Issued by NWS

Home | Current Version | Previous Version | Text Only | Print | Product List | Glossary Off
Versions: 1 2 3 4 5 6 7 8 9 10 11 12 13 14 15 16 17 18 19 20 21 22 23 24 25 26 27 28 29 30 31 32 33 34 35 36 37 38 39 40 41 42 43 44 45 46 47 48 49 50

000
ASUS43 KIND 230109
RWRIN

WEATHER ROUNDUP FOR INDIANA
NATIONAL WEATHER SERVICE INDIANAPOLIS IN
900 PM EDT WED OCT 22 2014

NOTE: "FAIR" INDICATES FEW OR NO CLOUDS BELOW 12,000 FEET WITH NO
SIGNIFICANT WEATHER AND/OR OBSTRUCTIONS TO VISIBILITY.

* - STATION DOES NOT REPORT WEATHER SUCH AS PRECIPITATION OR FOG.

+ - STATION NOT QUALITY CONTROLLED BY THE NATIONAL WEATHER SERVICE.
    USE DATA WITH CAUTION...ESPECIALLY DEWPOINT AND RELATIVE
    HUMIDITY OBSERVATIONS.

INZ001>003-010>013-019-020-230200-
NORTHWEST INDIANA

CITY           SKY/WX    TMP DP  RH WIND       PRES   REMARKS
KNOX *+          N/A     40  34  81 NE3       30.27F
LA PORTE +     PTCLDY    42  39  91 CALM      30.29R
MICHIGAN CITY+ CLEAR     37  37 100 CALM      30.29S
MONTICELLO +   CLEAR     43  37  78 CALM      30.25F
RENSSELAER +   CLEAR     45  36  70 NE6       30.27S
VALPARAISO     CLEAR     42  36  79 NE3       30.28S

$$

LMZ046-743>745-230200-
SOUTHERN LAKE MICHIGAN

STATION/POSITION TIME  TEMP WIND        PRES
                       AIR  DIR/SP/G
                 (UTC) (F)  (DEG/KT/KT) (MB)
MICHIGAN CITY    0100   47   60/  6/  7   N/A

$$

INZ004-005-014>016-021>024-230200-
NORTH CENTRAL INDIANA

CITY           SKY/WX    TMP DP  RH WIND       PRES   REMARKS
ELKHART        MOCLDY    41  36  81 E6        30.29F
GOSHEN         CLEAR     41  37  86 CALM      30.29S
LOGANSPORT +   CLEAR     46  36  66 NE5       30.27F
PERU/GRISSOM   CLEAR     46  43  88 E6        30.26S
ROCHESTER +    CLEAR     43  39  87 E5        30.28F
SOUTH BEND     CLEAR     45  38  76 E6        30.29F
WARSAW +       CLEAR     41  37  87 E3        30.29S

$$

INZ006>009-017-018-025>027-230200-
NORTHEAST INDIANA

CITY           SKY/WX    TMP DP  RH WIND       PRES   REMARKS
ANGOLA *+      PTCLDY    39  28  65 CALM      30.29S
AUBURN +       CLEAR     37  36  93 CALM      30.30S
FORT WAYNE     CLEAR     40  37  89 E6        30.30S
HUNTINGTON +   CLEAR     42  38  88 E5        30.28S

$$

INZ028-029-035-036-043>045-051>053-230200-
WEST CENTRAL INDIANA

CITY           SKY/WX    TMP DP  RH WIND       PRES   REMARKS
GREENCASTLE +  CLEAR     46  39  76 CALM      30.26S
LAFAYETTE      CLEAR     44  38  79 CALM      30.26S
TERRE HAUTE    CLEAR     43  39  86 NE3       30.25S

$$

INZ030>032-037>040-046>048-054>057-064-065-230200-
CENTRAL INDIANA

CITY           SKY/WX    TMP DP  RH WIND       PRES   REMARKS
CP ATTERBURY + CLEAR     43  37  81 CALM      30.26S
FRANKFORT +    CLEAR     42  38  86 CALM      30.27F
INDIANAPOLIS   CLEAR     51  39  63 CALM      30.25S
-EAGLE CREEK   CLEAR     46  40  79 CALM      30.25S
KOKOMO *+      CLEAR     45  23  42 E9        30.27F
MARION +       CLEAR     44  38  79 E7        30.28S
MT COMFORT *+  CLEAR     41  37  87 E3        30.27S
SHELBYVILLE    CLEAR     43  38  82 E7        30.26S
ZIONSVILLE +   CLEAR     43  37  81 CALM      30.26F

$$

INZ033-034-041-042-049-050-058-059-230200-
EAST CENTRAL INDIANA

CITY           SKY/WX    TMP DP  RH WIND       PRES   REMARKS
MUNCIE         CLEAR     42  39  89 E6        30.28S

$$

INZ060-061-067>069-081>083-085>088-230200-
SOUTHWEST INDIANA

CITY           SKY/WX    TMP DP  RH WIND       PRES   REMARKS
EVANSVILLE     CLEAR     49  42  77 CALM      30.24S
HUNTINGBURG *+ CLEAR     48  39  71 E5        30.25S
WASHINGTON +   CLEAR     44  42  90 CALM      30.24S

$$

INZ062-063-066-070>080-084-089>092-230200-
SOUTH CENTRAL AND SOUTHEAST INDIANA

CITY           SKY/WX    TMP DP  RH WIND       PRES   REMARKS
BEDFORD +      CLEAR     50  39  66 NE5       30.25
BLOOMINGTON    CLEAR     43  39  86 CALM      30.26R
SEYMOUR +      CLEAR     45  39  81 E5        30.26S

$$




USA.gov is the U.S. government's official web portal to all federal, state and local government web resources and services.